Weather History for KOPL - July, 2014

Change the Weather History Date:

Monday, July 14, 2014

  Actual Average (KLFT) Record (KLFT)
Temperature  
Mean Temperature 80 °F 83 °F  
Max Temperature 91 °F 92 °F 98 °F (1923)
Min Temperature 70 °F 75 °F 63 °F (1990)
Cooling Degree Days 16 18  
Month to date cooling degree days 252  
Year to date cooling degree days 1364  
Since 1 June cooling degree days 750  
Growing Degree Days 30 (Base 50)    
Moisture  
Dew Point 73 °F    
Average Humidity 81    
Maximum Humidity 100    
Minimum Humidity 53    
Precipitation  
Precipitation 0.00 in 0.21 in 4.78 in (1989)
Month to date precipitation 3.21  
Year to date precipitation 32.91  
Sea Level Pressure  
Sea Level Pressure 30.01 in    
Wind  
Wind Speed 2 mph (SW)    
Max Wind Speed 9 mph    
Max Gust Speed -    
Visibility 9 miles    
Events      
T = Trace of Precipitation, MM = Missing Value Source: NWS Daily Summary

Daily Weather History Graph

Daily Weather History Graph

Search for Another Location

Airport or City:

Trip Planner

Search our weather history database for the weather conditions in past years. The results will help you decide how hot, cold, wet, or windy it might be!

Date:

Astronomy

Jul. 14, 2014 Rise Set
Actual Time 6:15 AM CDT 8:12 PM CDT
Civil Twilight 5:48 AM CDT 8:39 PM CDT
Nautical Twilight 5:15 AM CDT 9:12 PM CDT
Astronomical Twilight 4:40 AM CDT 9:47 PM CDT
Moon 9:58 PM CDT (7/14) 8:45 AM CDT (7/14)
Length of Visible Light 14h 51m
Length of Day
13h 56m
Waning Gibbous, 93% of the Moon is Illuminated
Jul 14
Waning Gibbous
Jul 18
Last Quarter
Jul 26
New
Aug 3
First Quarter
Aug 10
Full

Hourly Weather History & Observations

Time (CDT) Temp. Heat Index Dew Point Humidity Pressure Visibility Wind Dir Wind Speed Gust Speed Precip Events Conditions
12:15 AM 73.4 °F - 72.5 °F 97% 30.02 in 10.0 mi Calm Calm - N/A   Clear
12:35 AM 72.9 °F - 72.3 °F 98% 30.02 in 7.0 mi Calm Calm - N/A   Clear
12:55 AM 73.0 °F - 72.1 °F 97% 30.03 in 10.0 mi Calm Calm - N/A   Clear
1:15 AM 72.7 °F - 72.1 °F 98% 30.02 in 10.0 mi Calm Calm - N/A   Clear
1:35 AM 72.5 °F - 72.0 °F 98% 30.02 in 7.0 mi Calm Calm - N/A   Clear
1:55 AM 72.9 °F - 72.0 °F 97% 30.02 in 10.0 mi SSE 4.6 mph - N/A   Clear
2:15 AM 73.4 °F - 72.0 °F 95% 30.01 in 10.0 mi Calm Calm - N/A   Clear
2:35 AM 73.0 °F - 71.6 °F 95% 30.01 in 10.0 mi SSW 3.5 mph - N/A   Clear
2:55 AM 72.9 °F - 71.6 °F 96% 30.01 in 10.0 mi Calm Calm - N/A   Clear
3:15 AM 72.5 °F - 71.6 °F 97% 30.02 in 10.0 mi Calm Calm - N/A   Clear
3:35 AM 72.1 °F - 71.6 °F 98% 30.02 in 10.0 mi Calm Calm - N/A   Clear
3:55 AM 72.0 °F - 71.1 °F 97% 30.02 in 7.0 mi Calm Calm - N/A   Clear
4:15 AM 71.2 °F - 70.9 °F 99% 30.02 in 7.0 mi Calm Calm - N/A   Clear
4:35 AM 71.1 °F - 70.9 °F 99% 30.03 in 5.0 mi Calm Calm - N/A   Clear
4:55 AM 70.9 °F - 70.7 °F 99% 30.03 in 7.0 mi Calm Calm - N/A   Clear
5:15 AM 70.9 °F - 70.7 °F 99% 30.03 in 7.0 mi Calm Calm - N/A   Clear
5:35 AM 70.5 °F - 70.5 °F 100% 30.04 in 5.0 mi Calm Calm - N/A   Clear
5:55 AM 70.5 °F - 70.3 °F 99% 30.04 in 7.0 mi Calm Calm - N/A   Clear
6:15 AM 70.7 °F - 70.7 °F 100% 30.04 in 5.0 mi Calm Calm - N/A   Clear
6:35 AM 70.7 °F - 70.7 °F 100% 30.05 in 3.0 mi Calm Calm - N/A   Clear
6:55 AM 71.1 °F - 71.1 °F 100% 30.05 in 3.0 mi Calm Calm - N/A   Clear
7:15 AM 72.9 °F - 72.9 °F 100% 30.05 in 5.0 mi Calm Calm - N/A   Clear
7:35 AM 74.1 °F - 72.9 °F 96% 30.05 in 7.0 mi Calm Calm - N/A   Clear
7:55 AM 74.7 °F - 73.0 °F 95% 30.06 in 10.0 mi Calm Calm - N/A   Clear
8:15 AM 75.4 °F - 73.6 °F 94% 30.05 in 10.0 mi SSE 3.5 mph - N/A   Clear
8:35 AM 76.1 °F - 73.8 °F 92% 30.05 in 10.0 mi Calm Calm - N/A   Clear
8:55 AM 77.5 °F - 73.8 °F 88% 30.05 in 10.0 mi Calm Calm - N/A   Clear
9:15 AM 79.0 °F - 74.8 °F 87% 30.05 in 10.0 mi Calm Calm - N/A   Clear
9:35 AM 80.2 °F 85.7 °F 75.7 °F 86% 30.05 in 10.0 mi Calm Calm - N/A   Clear
9:55 AM 81.1 °F 87.6 °F 75.7 °F 84% 30.06 in 10.0 mi SSW 5.8 mph - N/A   Clear
10:15 AM 80.8 °F 86.5 °F 75.2 °F 83% 30.05 in 10.0 mi SW 3.5 mph - N/A   Clear
10:35 AM 83.7 °F 91.3 °F 75.0 °F 75% 30.05 in 10.0 mi SW 4.6 mph - N/A   Clear
10:55 AM 84.9 °F 93.7 °F 75.4 °F 73% 30.05 in 10.0 mi WSW 5.8 mph - N/A   Clear
11:15 AM 86.2 °F 94.6 °F 74.5 °F 68% 30.04 in 10.0 mi WSW 8.1 mph - N/A   Clear
11:35 AM 86.7 °F 95.0 °F 73.9 °F 66% 30.05 in 10.0 mi WSW 5.8 mph - N/A   Clear
11:55 AM 87.3 °F 95.3 °F 73.8 °F 64% 30.05 in 10.0 mi SW 4.6 mph - N/A   Clear
12:15 PM 87.8 °F 95.6 °F 73.4 °F 62% 30.04 in 10.0 mi WSW 5.8 mph - N/A   Clear
12:35 PM 88.0 °F 96.5 °F 73.8 °F 63% 30.04 in 10.0 mi West 3.5 mph - N/A   Clear
12:55 PM 87.3 °F 95.8 °F 74.1 °F 65% 30.03 in 10.0 mi WSW 5.8 mph - N/A   Scattered Clouds
1:15 PM 88.2 °F 96.9 °F 74.3 °F 63% 30.03 in 10.0 mi Calm Calm - N/A   Scattered Clouds
1:35 PM 89.1 °F 97.5 °F 73.6 °F 60% 30.02 in 10.0 mi WSW 5.8 mph - N/A   Clear
1:55 PM 90.0 °F 100.2 °F 75.0 °F 61% 30.01 in 10.0 mi West 6.9 mph - N/A   Scattered Clouds
2:15 PM 89.8 °F 99.7 °F 74.5 °F 61% 30.00 in 10.0 mi West 8.1 mph - N/A   Scattered Clouds
2:35 PM 88.9 °F 98.1 °F 74.3 °F 62% 30.00 in 10.0 mi West 6.9 mph - N/A   Mostly Cloudy
2:55 PM 90.1 °F 99.4 °F 73.9 °F 59% 29.99 in 10.0 mi West 9.2 mph - N/A   Scattered Clouds
3:15 PM 90.1 °F 97.8 °F 72.7 °F 56% 29.98 in 10.0 mi West 4.6 mph - N/A   Clear
3:35 PM 90.3 °F 96.7 °F 71.1 °F 53% 29.98 in 10.0 mi WSW 8.1 mph - N/A   Clear
3:55 PM 90.3 °F 97.2 °F 71.8 °F 54% 29.97 in 10.0 mi Calm Calm - N/A   Clear
4:15 PM 91.0 °F 99.3 °F 72.9 °F 55% 29.96 in 10.0 mi SW 3.5 mph - N/A   Clear
4:55 PM 90.7 °F 97.9 °F 72.1 °F 54% 29.95 in 10.0 mi SW 5.8 mph - N/A   Clear
5:35 PM 90.1 °F 98.3 °F 73.0 °F 57% 29.94 in 10.0 mi SSW 4.6 mph - N/A   Clear
5:55 PM 89.2 °F 97.4 °F 73.0 °F 59% 29.93 in 10.0 mi South 9.2 mph - N/A   Clear
6:15 PM 89.6 °F 98.2 °F 73.4 °F 59% 29.93 in 10.0 mi SSW 5.8 mph - N/A   Scattered Clouds
6:35 PM 87.8 °F 96.1 °F 73.8 °F 63% 29.94 in 10.0 mi SSW 8.1 mph - N/A   Scattered Clouds
6:55 PM 86.9 °F 95.4 °F 74.5 °F 66% 29.94 in 10.0 mi SW 6.9 mph - N/A   Scattered Clouds
7:15 PM 86.4 °F 95.1 °F 74.8 °F 68% 29.94 in 10.0 mi SW 9.2 mph - N/A   Clear
7:35 PM 85.3 °F 94.2 °F 75.2 °F 72% 29.94 in 10.0 mi SSW 6.9 mph - N/A   Clear
7:55 PM 84.2 °F 92.3 °F 75.2 °F 74% 29.94 in 10.0 mi SSW 5.8 mph - N/A   Clear
8:15 PM 82.8 °F 90.1 °F 75.4 °F 78% 29.94 in 10.0 mi South 3.5 mph - N/A   Clear
8:35 PM 81.9 °F 88.7 °F 75.6 °F 81% 29.95 in 10.0 mi South 3.5 mph - N/A   Scattered Clouds
8:55 PM 81.9 °F 88.5 °F 75.2 °F 80% 29.95 in 10.0 mi SSW 4.6 mph - N/A   Clear
9:35 PM 81.3 °F 87.0 °F 74.3 °F 79% 29.96 in 10.0 mi SW 4.6 mph - N/A   Scattered Clouds
10:15 PM 79.7 °F - 74.3 °F 83% 29.96 in 10.0 mi SSW 4.6 mph - N/A   Clear
10:35 PM 79.3 °F - 74.3 °F 84% 29.97 in 10.0 mi Calm Calm - N/A   Clear
10:55 PM 78.8 °F - 74.3 °F 86% 29.97 in 10.0 mi SSW 5.8 mph - N/A   Clear
11:15 PM 78.8 °F - 74.3 °F 86% 29.98 in 10.0 mi SSW 4.6 mph - N/A   Clear
11:35 PM 78.6 °F - 74.3 °F 87% 29.98 in 10.0 mi Calm Calm - N/A   Clear
11:55 PM 78.1 °F - 74.3 °F 88% 29.98 in 10.0 mi SSW 5.8 mph - N/A   Clear